weather.gov     
National Weather Service

Regional Weather Roundup
NWS Homepage
This page is being discontinued on March 12, 2014.
The same data is available at this site. Please update your bookmarks.
Thank you, and we apologize for the inconvenience.
Please send an email to SR-SRH.Webmaster@noaa.gov with any concerns.


Current Version
Previous Version:    01  02  03  04  05  06  07  08  09  10  11  12  13  14  15  16  17  18  19  20  21  22  23  24  25  26  
[Printable]
333
ASUS41 KALY 222110
RWRALY

NEW YORK STATE HOURLY WEATHER ROUNDUP
NATIONAL WEATHER SERVICE ALBANY NY
500 PM EDT FRI AUG 22 2014

NOTE: "FAIR" INDICATES FEW OR NO CLOUDS BELOW 12,000 FEET WITH NO
SIGNIFICANT WEATHER AND/OR NO OBSTRUCTIONS TO VISIBILITY.

NYZ032-033-038>043-046>054-057>066-NYZ062>081-222200-
EAST


CITY           SKY/WX    TMP DP  RH WIND       PRES   REMARKS
ALBANY         CLOUDY    67  63  87 CALM      30.06S
GLENS FALLS    NOT AVBL
POUGHKEEPSIE   CLOUDY    72  61  68 S3        30.02S
NEWBURGH       PTSUNNY   66  66 100 VRB6      30.05  FOG
MONTGOMERY     CLOUDY    67  63  87 N5        30.04S
WHITE PLAINS   PTSUNNY   71  57  61 E6        30.03S
ISLIP          PTSUNNY   75  58  55 E10       30.01R
NEW YORK CITY  LGT RAIN  69  60  73 SE9       30.03R
CENTRAL PARK   LGT RAIN  71  62  73 VRB5      30.05R
$$

NYZ005>009-017-018-044>046-055-056-222200-
CENTRAL


CITY           SKY/WX    TMP DP  RH WIND       PRES   REMARKS
FULTON         CLOUDY    73  67  81 E5        29.99S
SYRACUSE       PTSUNNY   73  67  81 NE6       29.98R
ROME           CLOUDY    69  63  81 E12       30.03R
ELMIRA         MOSUNNY   80  68  66 NE9       29.95R
BINGHAMTON     MOSUNNY   72  66  81 SE8       30.00S
MONTICELLO     CLOUDY    64  63  94 SE6       30.07R
$$

NYZ026>034-041>043-222200-
NORTH


CITY           SKY/WX    TMP DP  RH WIND       PRES   REMARKS
WATERTOWN      CLOUDY    72  66  81 E7        29.99S
FORT DRUM      NOT AVBL
MASSENA        SUNNY     74  64  71 NE17      30.03S
SARANAC LAKE   CLOUDY    65  59  81 E6        30.06S
PLATTSBURGH    LGT RAIN  65  62  90 SE6       30.09S
$$

NYZ001>004-010>016-019>021-222200-
WEST


CITY           SKY/WX    TMP DP  RH WIND       PRES   REMARKS
NIAGARA FALLS  PTSUNNY   77  65  66 N12       29.97S
BUFFALO        PTSUNNY   78  65  63 N10       29.97S
DUNKIRK        SUNNY     78  64  61 NW8       29.96F
JAMESTOWN      MOSUNNY   75  66  73 NW10      29.99F
WELLSVILLE     LGT RAIN  77  62  59 NW9       30.01S
ROCHESTER      MOSUNNY   76  67  73 NE10      29.98R
PENN YAN       SUNNY     76  69  79 E5        29.99R
$$

             KEY
       WCI = WIND CHILL INDEX
       VSB = VISIBILITY
       HX  = HEAT INDEX
$$




U.S. Dept. of Commerce
NOAA National Weather Service
1325 East West Highway
Silver Spring, MD 20910
E-mail: w-nws.webmaster@noaa.gov
Page last modified: May 16, 2007
NATIONAL WEATHER SERVICE: for Safety, for Work, for Fun - FOR LIFE